This demonstration page uses our WeatherBlox Daily Observations layout. Learn more.

Left ArrowRight Arrow

53.62937, 11.41316

Hourly Observations for November 1, 2019

Temp ( °F °C ) Dew Point ( °F °C ) Humidity (%) Winds ( mph kmh ) Pressure ( in mb ) Visibility ( mi km ) Precip ( " mm )
6:50 am 06:50 Mostly Clear 32 0 28 -2 87 87 ESE 5 7 30.01 1016 7 11 N/A
7:20 am 07:20 Mostly Sunny 32 0 28 -2 87 87 VRB 2 4 30.01 1016 7 11 N/A
7:50 am 07:50 Mostly Sunny 32 0 28 -2 87 87 ESE 3 6 30.01 1016 7 11 N/A
8:20 am 08:20 Mostly Sunny 34 1 30 -1 87 87 ESE 5 7 30.01 1016 6 9 N/A
8:50 am 08:50 Mostly Sunny 34 1 30 -1 87 87 ESE 6 9 29.98 1015 6 9 N/A
9:20 am 09:20 Mostly Sunny 36 2 30 -1 81 81 SE 7 11 29.95 1014 6 9 N/A
9:50 am 09:50 Mostly Sunny 36 2 30 -1 81 81 ESE 8 13 29.92 1013 6 9 N/A
10:20 am 10:20 Mostly Sunny 37 3 30 -1 75 75 SE 8 13 29.92 1013 6 9 N/A
10:50 am 10:50 Mostly Sunny 37 3 32 0 81 81 SE 6 9 29.89 1012 6 9 N/A
11:20 am 11:20 Mostly Sunny 39 4 32 0 75 75 SE 8 13 29.89 1012 6 9 N/A
11:50 am 11:50 Mostly Sunny 39 4 32 0 75 75 SSE 7 11 29.86 1011 6 9 N/A
12:20 pm 12:20 Mostly Sunny 41 5 32 0 70 70 SE 7 11 29.83 1010 7 11 N/A
12:50 pm 12:50 Mostly Sunny 41 5 32 0 70 70 SE 12 19 29.80 1009 6 9 N/A
1:20 pm 13:20 Mostly Sunny 43 6 32 0 66 66 SSE 9 15 29.80 1009 7 11 N/A
1:50 pm 13:50 Mostly Sunny 41 5 32 0 70 70 SSE 9 15 29.77 1008 7 11 N/A
2:20 pm 14:20 Mostly Sunny 41 5 32 0 70 70 SSE 9 15 29.74 1007 7 11 N/A
2:50 pm 14:50 Mostly Sunny 41 5 32 0 70 70 SSE 8 13 29.74 1007 7 11 N/A
3:20 pm 15:20 Mostly Cloudy 41 5 32 0 70 70 S 7 11 29.71 1006 30 48 N/A
3:50 pm 15:50 Mostly Cloudy 39 4 34 1 81 81 SSE 8 13 29.71 1006 30 48 N/A
4:20 pm 16:20 Mostly Cloudy 39 4 34 1 81 81 SSE 8 13 29.68 1005 30 48 N/A
4:50 pm 16:50 Mostly Cloudy with Light Rain 39 4 36 2 87 87 SSE 7 11 29.68 1005 5 8 N/A
5:20 pm 17:20 Mostly Cloudy with Light Rain 39 4 36 2 87 87 S 7 11 29.65 1004 4 7 N/A
5:50 pm 17:50 Mostly Cloudy with Light Rain 39 4 36 2 87 87 S 7 11 29.65 1004 3 5 N/A
6:20 pm 18:20 Mostly Cloudy with Light Rain 39 4 37 3 93 93 SSE 5 7 29.62 1003 4 6 N/A
6:50 pm 18:50 Mostly Cloudy with Light Rain 39 4 37 3 93 93 SSE 6 9 29.62 1003 4 7 N/A
7:20 pm 19:20 Mostly Cloudy with Light Rain 39 4 37 3 93 93 SSE 6 9 29.59 1002 4 6 N/A
7:50 pm 19:50 Cloudy with Drizzle 39 4 37 3 93 93 SSE 7 11 29.56 1001 3 5 N/A

Powered by AerisWeather